User: anonymous   Login
Location: Unspecified
(0.0000°N, 0.0000°E)
Time: 21:25:13
(UTC+00:00)
Language:

UME 1 - Orbit

View from above orbital plane
View from above orbital plane
View from above satellite
View from above satellite

Ground track
Ground track

The orbit data is extracted from the following two-line orbital elements,

1  8709U 76019A   18051.93817616 -.00000022 +00000-0 +33217-4 0  9998
2  8709 069.6763 346.1606 0013108 305.8732 117.4222 13.71393954100498
Epoch (UTC): 20 February 2018 22:30:58
Eccentricity: 0.0013108
inclination: 69.6763°
perigee height: 985 km
apogee height: 1004 km
right ascension of ascending node: 346.1606°
argument of perigee: 305.8732°
revolutions per day: 13.71393954
mean anomaly at epoch: 117.4222°
orbit number at epoch: 10049

The dashed part of the orbit path shows where the satellite is in the earth's shadow,  

DLR